Weather History for VAAH - March, 2014

Change the Weather History Date:

Saturday, March 29, 2014

  Actual Average Record
Temperature  
Mean Temperature 83 °F -  
Max Temperature 96 °F 100 °F 107 °F (2007)
Min Temperature 70 °F 74 °F 66 °F (2006)
Cooling Degree Days 18    
Growing Degree Days 33 (Base 50)    
Moisture  
Dew Point 53 °F    
Average Humidity 34    
Maximum Humidity 57    
Minimum Humidity 18    
Precipitation  
Precipitation 0.00 in 0.00 in - ()
Sea Level Pressure  
Sea Level Pressure 29.84 in    
Wind  
Wind Speed 4 mph ()    
Max Wind Speed 9 mph    
Max Gust Speed -    
Visibility 2.8 miles    
Events      
Averages and records for this station are not official NWS values.
T = Trace of Precipitation, MM = Missing Value Source: Averaged Metar Reports

Daily Weather History Graph

Daily Weather History Graph

Search for Another Location

Airport or City:

Trip Planner

Search our weather history database for the weather conditions in past years. The results will help you decide how hot, cold, wet, or windy it might be!

Date:

Astronomy

Mar. 29, 2014 Rise Set
Actual Time 6:35 AM IST 6:53 PM IST
Civil Twilight 6:12 AM IST 7:16 PM IST
Nautical Twilight 5:46 AM IST 7:42 PM IST
Astronomical Twilight 5:19 AM IST 8:09 PM IST
Moon 5:15 AM IST (3/29) 5:35 PM IST (3/29)
Length of Visible Light 13h 03m
Length of Day
12h 18m
Waning Crescent, 3% of the Moon is Illuminated
Mar 29
Waning Crescent
Mar 31
New
Apr 7
First Quarter
Apr 15
Full
Apr 22
Last Quarter

Hourly Weather History & Observations

Time (IST) Temp. Heat Index Dew Point Humidity Pressure Visibility Wind Dir Wind Speed Gust Speed Precip Events Conditions
12:10 AM 80.6 °F - 39.2 °F 23% 29.86 in 2.5 mi SW 3.5 mph - N/A   Smoke
12:40 AM 77.0 °F - 41.0 °F 28% 29.86 in 2.5 mi SW 3.5 mph - N/A   Smoke
1:10 AM 75.2 °F - 42.8 °F 31% 29.86 in 2.5 mi WSW 3.5 mph - N/A   Smoke
1:40 AM 80.6 °F - 44.6 °F 28% 29.86 in 2.5 mi WSW 5.8 mph - N/A   Smoke
2:10 AM 78.8 °F - 46.4 °F 32% 29.83 in 2.5 mi West 5.8 mph - N/A   Smoke
2:30 AM 78 °F - 53 °F 31% 29.85 in 2 mi West 3.5 mph - -  
2:40 AM 78.8 °F - 46.4 °F 32% 29.83 in 2.5 mi West 4.6 mph - N/A   Smoke
3:10 AM 77.0 °F - 50.0 °F 39% 29.83 in 2.5 mi West 4.6 mph - N/A   Smoke
3:40 AM 77.0 °F - 50.0 °F 39% 29.83 in 2.5 mi West 6.9 mph - N/A   Smoke
4:10 AM 75.2 °F - 51.8 °F 44% 29.83 in 2.5 mi West 6.9 mph - N/A   Smoke
4:40 AM 73.4 °F - 53.6 °F 50% 29.83 in 2.5 mi Calm Calm - N/A   Smoke
5:10 AM 69.8 °F - 53.6 °F 56% 29.83 in 2.5 mi NNW 2.3 mph - N/A   Smoke
5:30 AM 72 °F - 57 °F 49% 29.85 in 2 mi West 2.3 mph - -   Smoke
5:40 AM 69.8 °F - 53.6 °F 56% 29.83 in 2.5 mi NNW 3.5 mph - N/A   Smoke
6:40 AM 71.6 °F - 53.6 °F 53% 29.86 in 2.5 mi NW 5.8 mph - N/A   Smoke
7:10 AM 71.6 °F - 55.4 °F 57% 29.89 in 2.2 mi WNW 5.8 mph - N/A   Smoke
7:40 AM 73.4 °F - 57.2 °F 57% 29.89 in 2.2 mi WNW 6.9 mph - N/A   Smoke
8:10 AM 75.2 °F - 57.2 °F 53% 29.92 in 2.2 mi NW 5.8 mph - N/A   Smoke
8:30 AM 77 °F - 61 °F 49% 29.91 in 2 mi WNW 3.5 mph - -   Smoke
8:40 AM 77.0 °F - 59.0 °F 54% 29.92 in 2.2 mi WNW 6.9 mph - N/A   Smoke
10:40 AM 89.6 °F 87.3 °F 53.6 °F 29% 29.92 in 3.7 mi North 8.1 mph - N/A   Unknown
11:10 AM 89.6 °F 87.3 °F 53.6 °F 29% 29.92 in 3.7 mi NNW 6.9 mph - N/A   Unknown
11:30 AM 90 °F - 58 °F 24% 29.92 in 2 mi WNW 4.6 mph - -   Smoke
12:10 PM 93.2 °F - 51.8 °F 24% 29.89 in 3.7 mi NW 5.8 mph - N/A   Unknown
12:40 PM 95.0 °F - 50.0 °F 22% 29.86 in 3.7 mi West 6.9 mph - N/A   Unknown
1:10 PM 96.8 °F - 48.2 °F 19% 29.86 in 3.7 mi WNW 6.9 mph - N/A   Unknown
1:40 PM 96.8 °F - 50.0 °F 20% 29.83 in 3.7 mi WNW 6.9 mph - N/A   Unknown
2:10 PM 96.8 °F - 50.0 °F 20% 29.83 in 3.7 mi West 8.1 mph - N/A   Unknown
2:30 PM 94 °F - 55 °F 18% 29.84 in 2 mi North 5.8 mph - -  
2:40 PM 96.8 °F - 50.0 °F 20% 29.80 in 3.7 mi NW 6.9 mph - N/A   Unknown
3:10 PM 98.6 °F - 51.8 °F 21% 29.80 in 3.7 mi West 6.9 mph - N/A   Unknown
3:40 PM 98.6 °F - 51.8 °F 21% 29.77 in 3.7 mi WNW 8.1 mph - N/A   Unknown
4:10 PM 98.6 °F - 51.8 °F 21% 29.77 in 5.0 mi WNW 9.2 mph - N/A   Unknown
4:40 PM 98.6 °F - 51.8 °F 21% 29.77 in 5.0 mi WNW 9.2 mph - N/A   Unknown
5:10 PM 96.8 °F - 51.8 °F 22% 29.77 in 5.0 mi NW 8.1 mph - N/A   Unknown
5:30 PM 94 °F - 56 °F 19% 29.80 in 2 mi North 5.8 mph - -  
5:40 PM 96.8 °F - 51.8 °F 22% 29.77 in 3.7 mi WNW 5.8 mph - N/A   Unknown
6:10 PM 95.0 °F 92.7 °F 53.6 °F 25% 29.77 in 3.7 mi NW 5.8 mph - N/A   Unknown
7:10 PM 91.4 °F 89.1 °F 53.6 °F 28% 29.80 in 2.5 mi NNW 3.5 mph - N/A   Smoke
7:40 PM 89.6 °F 87.3 °F 53.6 °F 29% 29.80 in 2.5 mi Calm Calm - N/A   Smoke
8:10 PM 87.8 °F 85.7 °F 53.6 °F 31% 29.83 in 2.5 mi NNW 4.6 mph - N/A   Smoke
8:30 PM 82 °F - 61 °F 38% 29.83 in 2 mi NW 4.6 mph - -  
8:40 PM 86.0 °F 84.2 °F 53.6 °F 33% 29.83 in 2.5 mi NNW 3.5 mph - N/A   Smoke
9:10 PM 86.0 °F 84.2 °F 53.6 °F 33% 29.83 in 2.5 mi Calm Calm - N/A   Smoke
9:40 PM 84.2 °F 83.0 °F 55.4 °F 37% 29.86 in 2.5 mi NNW 2.3 mph - N/A   Smoke
10:10 PM 84.2 °F 82.8 °F 53.6 °F 35% 29.86 in 2.5 mi NNW 3.5 mph - N/A   Smoke
10:40 PM 82.4 °F 81.4 °F 53.6 °F 37% 29.86 in 2.5 mi WNW 2.3 mph - N/A   Smoke
11:10 PM 80.6 °F 80.3 °F 53.6 °F 39% 29.86 in 2.5 mi Calm Calm - N/A   Smoke
11:30 PM 78 °F - 62 °F 47% 29.86 in 2 mi NW 2.3 mph - -  
11:40 PM 78.8 °F - 53.6 °F 42% 29.86 in 2.5 mi Calm Calm - N/A   Smoke